TimePDT,TemperatureF,Dew PointF,Humidity,Sea Level PressureIn,VisibilityMPH,Wind Direction,Wind SpeedMPH,Gust SpeedMPH,PrecipitationIn,Events,Conditions,WindDirDegrees,DateUTC
12:53 AM,41.0,30.9,67,29.93,10.0,NNE,3.5,-,N/A,,Clear,30,2013-09-23 07:53:00
1:53 AM,37.9,30.0,73,29.94,10.0,SE,3.5,-,N/A,,Clear,130,2013-09-23 08:53:00
2:53 AM,35.1,28.9,78,29.97,10.0,South,6.9,-,N/A,,Clear,190,2013-09-23 09:53:00
3:53 AM,34.0,28.9,82,29.98,10.0,South,9.2,-,N/A,,Clear,180,2013-09-23 10:53:00
4:53 AM,33.1,28.0,82,29.99,10.0,South,9.2,-,N/A,,Clear,170,2013-09-23 11:53:00
5:53 AM,32.0,28.0,85,30.02,10.0,South,8.1,-,N/A,,Clear,170,2013-09-23 12:53:00
6:53 AM,30.9,27.0,85,30.07,10.0,South,9.2,-,N/A,,Clear,170,2013-09-23 13:53:00
7:53 AM,39.9,30.9,70,30.05,10.0,South,4.6,-,N/A,,Clear,180,2013-09-23 14:53:00
8:53 AM,48.9,33.1,54,30.04,10.0,Calm,Calm,-,N/A,,Clear,0,2013-09-23 15:53:00
9:53 AM,55.9,30.9,39,30.03,10.0,ENE,3.5,-,N/A,,Clear,60,2013-09-23 16:53:00
10:53 AM,57.9,30.0,35,30.02,10.0,Calm,Calm,-,N/A,,Clear,0,2013-09-23 17:53:00
11:53 AM,61.0,27.0,27,30.00,10.0,SW,5.8,-,N/A,,Clear,220,2013-09-23 18:53:00
12:53 PM,64.0,21.9,20,29.97,10.0,Variable,3.5,-,N/A,,Clear,0,2013-09-23 19:53:00
1:53 PM,66.9,24.1,20,29.95,10.0,Variable,4.6,-,N/A,,Clear,0,2013-09-23 20:53:00
2:53 PM,69.1,21.0,16,29.96,10.0,West,5.8,17.3,N/A,,Clear,280,2013-09-23 21:53:00
3:53 PM,70.0,24.1,18,29.95,10.0,WSW,8.1,-,N/A,,Clear,250,2013-09-23 22:53:00
4:53 PM,71.1,25.0,18,29.94,10.0,WSW,5.8,-,N/A,,Clear,250,2013-09-23 23:53:00
5:53 PM,68.0,25.0,20,29.96,10.0,WSW,5.8,-,N/A,,Clear,240,2013-09-24 00:53:00
6:53 PM,59.0,24.1,26,30.01,10.0,SW,9.2,-,N/A,,Clear,230,2013-09-24 01:53:00
7:53 PM,53.1,25.0,34,30.02,10.0,SSE,10.4,-,N/A,,Clear,160,2013-09-24 02:53:00
8:53 PM,51.1,24.1,35,30.01,10.0,South,12.7,-,N/A,,Clear,190,2013-09-24 03:53:00
9:53 PM,46.9,24.1,41,29.99,10.0,South,12.7,-,N/A,,Clear,190,2013-09-24 04:53:00
10:53 PM,45.0,25.0,46,29.99,10.0,South,11.5,-,N/A,,Clear,180,2013-09-24 05:53:00
11:53 PM,42.1,26.1,53,29.98,10.0,South,12.7,-,N/A,,Clear,180,2013-09-24 06:53:00